Weather History for Modesto, CA

Change the Weather History Date:

Thursday, August 1, 2013

  Actual Average Record
Temperature  
Mean Temperature 74 °F -  
Max Temperature 90 °F 95 °F 106 °F (1993)
Min Temperature 58 °F 63 °F 50 °F (1937)
Degree Days  
Heating Degree Days 0 0  
Month to date heating degree days 0 0  
Since 1 June heating degree days 0 3  
Since 1 July heating degree days 0 0  
Cooling Degree Days 9 14  
Month to date cooling degree days 9 14  
Year to date cooling degree days 1089 949  
Since 1 June cooling degree days 843 750  
Growing Degree Days 24 (Base 50)    
Moisture  
Dew Point 45 °F    
Average Humidity 42    
Maximum Humidity 67    
Minimum Humidity 17    
Precipitation  
Precipitation 0.00 in 0.00 in 0.00 in (2014)
Month to date precipitation 0.00 0.00  
Year to date precipitation 3.21 8.75  
Since 1 July precipitation 0.00 T  
Snow  
Snow 0.00 in - - ()
Month to date snowfall 0.0  
Since 1 June snowfall 0.0  
Since 1 July snowfall 0.0  
Snow Depth -    
Sea Level Pressure  
Sea Level Pressure 29.95 in    
Wind  
Wind Speed 7 mph (NNW)    
Max Wind Speed 15 mph    
Max Gust Speed 33 mph    
Visibility 10 miles    
Events      
T = Trace of Precipitation, MM = Missing Value Source: NWS Daily Summary

Daily Weather History Graph

Daily Weather History Graph

Search for Another Location

Airport:

Trip Planner

Search our weather history database for the weather conditions in past years. The results will help you decide how hot, cold, wet, or windy it might be!

Date:

Astronomy

Aug. 01, 2013 Rise Set
Actual Time 6:07 AM PDT 8:11 PM PDT
Civil Twilight 5:38 AM PDT 8:40 PM PDT
Nautical Twilight 5:03 AM PDT 9:15 PM PDT
Astronomical Twilight 4:25 AM PDT 9:54 PM PDT
Moon 1:48 AM PDT (8/1) 4:24 PM PDT (8/1)
Length of Visible Light 15h 01m
Length of Day
14h 03m
Waning Crescent, 22% of the Moon is Illuminated
Aug 1
Waning Crescent
Aug 6
New
Aug 14
First Quarter
Aug 20
Full
Aug 28
Last Quarter

Hourly Weather History & Observations

Time (PDT) Temp. Dew Point Humidity Pressure Visibility Wind Dir Wind Speed Gust Speed Precip Events Conditions
12:53 AM 64.9 °F 45.0 °F 48% 29.96 in 10.0 mi North 6.9 mph - N/A   Clear
1:53 AM 63.0 °F 45.0 °F 52% 29.95 in 10.0 mi NNW 5.8 mph - N/A   Clear
2:53 AM 61.0 °F 45.0 °F 56% 29.95 in 10.0 mi NW 4.6 mph - N/A   Clear
3:53 AM 61.0 °F 46.9 °F 60% 29.96 in 10.0 mi North 3.5 mph - N/A   Clear
4:53 AM 60.1 °F 48.0 °F 64% 29.97 in 10.0 mi Calm Calm - N/A   Clear
5:53 AM 59.0 °F 48.9 °F 69% 29.97 in 10.0 mi North 4.6 mph - N/A   Clear
6:53 AM 59.0 °F 48.9 °F 69% 29.98 in 10.0 mi North 5.8 mph - N/A   Clear
7:53 AM 62.1 °F 50.0 °F 65% 29.99 in 10.0 mi North 4.6 mph - N/A   Clear
8:53 AM 66.9 °F 48.9 °F 52% 30.01 in 10.0 mi North 4.6 mph - N/A   Clear
9:53 AM 73.0 °F 48.0 °F 41% 30.01 in 10.0 mi Variable 5.8 mph - N/A   Clear
10:53 AM 78.1 °F 46.9 °F 33% 30.01 in 10.0 mi NW 10.4 mph - N/A   Clear
11:53 AM 80.1 °F 45.0 °F 29% 30.01 in 10.0 mi NNW 9.2 mph 19.6 mph N/A   Clear
12:53 PM 84.0 °F 43.0 °F 24% 29.99 in 10.0 mi NW 11.5 mph - N/A   Clear
1:53 PM 86.0 °F 45.0 °F 24% 29.98 in 10.0 mi NW 11.5 mph - N/A   Clear
2:53 PM 88.0 °F 44.1 °F 22% 29.96 in 10.0 mi NNW 12.7 mph - N/A   Clear
3:53 PM 89.1 °F 43.0 °F 20% 29.93 in 10.0 mi WNW 12.7 mph - N/A   Clear
4:53 PM 89.1 °F 39.9 °F 18% 29.92 in 10.0 mi North 11.5 mph - N/A   Clear
5:53 PM 87.1 °F 42.1 °F 21% 29.90 in 10.0 mi NNW 12.7 mph - N/A   Clear
6:53 PM 84.0 °F 43.0 °F 24% 29.90 in 10.0 mi NW 11.5 mph - N/A   Clear
7:53 PM 80.1 °F 39.9 °F 24% 29.90 in 10.0 mi NW 12.7 mph - N/A   Clear
8:53 PM 75.0 °F 41.0 °F 29% 29.90 in 10.0 mi NW 9.2 mph - N/A   Clear
9:53 PM 72.0 °F 41.0 °F 33% 29.91 in 10.0 mi NW 10.4 mph - N/A   Clear
10:53 PM 69.1 °F 43.0 °F 39% 29.91 in 10.0 mi North 6.9 mph - N/A   Clear
11:53 PM 66.0 °F 46.0 °F 48% 29.91 in 10.0 mi North 4.6 mph - N/A   Clear